When you browse on this site, cookies collect data to enhance your experience and personalize the content and advertising you see.
Visit our Privacy Policy to learn more. By continuing to use the site, you agree to this use of cookies and data.
  • In United Kingdom
  • List of Countries
  • For 7 days
  • Water Temperature
  • Weather Map
  • Weather Widgets
  • user-avatar
    Login

    Hourly Weather Namyur

    Today, 13 December, Friday

    Time Temperature Precipitation Wind Pressure Humidity
    00:00 +2°C° 0 mm 8 mps 725 mmHg 86%
    01:00 +3°C° 0.1 mm 7 mps 724 mmHg 88%
    02:00 +3°C° 0.1 mm 6 mps 722 mmHg 89%
    03:00 +3°C° 0.1 mm 5 mps 721 mmHg 91%
    04:00 +4°C° 1.3 mm 6 mps 720 mmHg 91%
    05:00 +4°C° 1.3 mm 6 mps 719 mmHg 91%
    06:00 +5°C° 1.3 mm 6 mps 719 mmHg 90%
    07:00 +4°C° 0.3 mm 6 mps 719 mmHg 90%
    08:00 +4°C° 0.3 mm 7 mps 719 mmHg 89%
    09:00 +4°C° 0.3 mm 7 mps 719 mmHg 88%
    10:00 +4°C° 0.8 mm 7 mps 720 mmHg 90%
    11:00 +4°C° 0.8 mm 8 mps 721 mmHg 91%
    12:00 +4°C° 0.8 mm 8 mps 722 mmHg 93%
    13:00 +3°C° 2.1 mm 9 mps 723 mmHg 92%
    14:00 +3°C° 2.1 mm 9 mps 724 mmHg 92%
    15:00 +3°C° 2.1 mm 9 mps 726 mmHg 91%
    16:00 +3°C° 0.3 mm 9 mps 727 mmHg 87%
    17:00 +4°C° 0.3 mm 8 mps 728 mmHg 84%
    18:00 +4°C° 0.3 mm 8 mps 729 mmHg 80%
    19:00 +3°C° 0 mm 7 mps 730 mmHg 81%
    20:00 +3°C° 0 mm 7 mps 730 mmHg 82%
    21:00 +2°C° 0 mm 6 mps 731 mmHg 83%
    22:00 +2°C° 0 mm 6 mps 731 mmHg 85%
    23:00 +2°C° 0 mm 7 mps 731 mmHg 86%

    Tomorrow, 14 December, Saturday

    Time Temperature Precipitation Wind Pressure Humidity
    00:00 +2°C° 0 mm 7 mps 730 mmHg 88%
    01:00 +2°C° 0.9 mm 8 mps 729 mmHg 88%
    02:00 +3°C° 0.9 mm 9 mps 728 mmHg 88%
    03:00 +5°C° 0.9 mm 10 mps 727 mmHg 89%
    04:00 +6°C° 0.2 mm 10 mps 728 mmHg 87%
    05:00 +6°C° 0.2 mm 11 mps 729 mmHg 86%
    06:00 +7°C° 0.2 mm 11 mps 729 mmHg 84%
    07:00 +6°C° 0.1 mm 10 mps 731 mmHg 80%
    08:00 +5°C° 0.1 mm 8 mps 733 mmHg 75%
    09:00 +4°C° 0.1 mm 7 mps 734 mmHg 71%
    10:00 +4°C° 0.8 mm 7 mps 735 mmHg 77%
    11:00 +4°C° 0.8 mm 6 mps 735 mmHg 84%
    12:00 +4°C° 0.8 mm 6 mps 736 mmHg 91%
    13:00 +4°C° 0.4 mm 7 mps 736 mmHg 88%
    14:00 +4°C° 0.4 mm 7 mps 737 mmHg 85%
    15:00 +5°C° 0.4 mm 8 mps 737 mmHg 83%
    16:00 +4°C° 0 mm 7 mps 738 mmHg 84%
    17:00 +3°C° 0 mm 6 mps 739 mmHg 84%
    18:00 +3°C° 0 mm 5 mps 739 mmHg 85%
    19:00 +3°C° 0 mm 5 mps 739 mmHg 85%
    20:00 +3°C° 0 mm 5 mps 739 mmHg 84%
    21:00 +4°C° 0 mm 6 mps 739 mmHg 84%
    22:00 +4°C° 0.1 mm 7 mps 738 mmHg 85%
    23:00 +5°C° 0.1 mm 7 mps 737 mmHg 87%

    Day after tomorrow, 15 December, Sunday

    Time Temperature Precipitation Wind Pressure Humidity
    00:00 +6°C° 0.1 mm 8 mps 736 mmHg 89%
    01:00 +6°C° 0.4 mm 9 mps 736 mmHg 85%
    02:00 +7°C° 0.4 mm 10 mps 736 mmHg 82%
    03:00 +7°C° 0.4 mm 10 mps 736 mmHg 79%
    04:00 +6°C° 0.1 mm 10 mps 737 mmHg 77%
    05:00 +5°C° 0.1 mm 9 mps 738 mmHg 75%
    06:00 +3°C° 0.1 mm 9 mps 739 mmHg 74%
    07:00 +4°C° 0 mm 8 mps 740 mmHg 74%
    08:00 +4°C° 0 mm 7 mps 741 mmHg 74%
    09:00 +3°C° 0 mm 6 mps 742 mmHg 74%
    10:00 +4°C° 0 mm 6 mps 743 mmHg 72%
    11:00 +4°C° 0 mm 7 mps 743 mmHg 70%
    12:00 +5°C° 0 mm 7 mps 744 mmHg 68%
    13:00 +4°C° 0 mm 6 mps 744 mmHg 70%
    14:00 +4°C° 0 mm 6 mps 744 mmHg 71%
    15:00 +5°C° 0 mm 5 mps 744 mmHg 73%
    16:00 +5°C° 0 mm 5 mps 744 mmHg 76%
    17:00 +5°C° 0 mm 5 mps 744 mmHg 80%
    18:00 +3°C° 0 mm 5 mps 744 mmHg 84%
    19:00 +5°C° 0 mm 5 mps 744 mmHg 85%
    20:00 +4°C° 0 mm 6 mps 744 mmHg 86%
    21:00 +4°C° 0 mm 6 mps 744 mmHg 86%
    22:00 +5°C° 0 mm 6 mps 744 mmHg 85%
    23:00 +5°C° 0 mm 6 mps 744 mmHg 84%

    16 December, Monday

    Time Temperature Precipitation Wind Pressure Humidity
    00:00 +6°C° 0 mm 5 mps 744 mmHg 82%
    01:00 +6°C° 0 mm 5 mps 744 mmHg 84%
    02:00 +5°C° 0 mm 6 mps 744 mmHg 86%
    03:00 +5°C° 0 mm 6 mps 744 mmHg 88%
    04:00 +6°C° 0.1 mm 5 mps 744 mmHg 88%
    05:00 +6°C° 0.1 mm 5 mps 744 mmHg 88%
    06:00 +6°C° 0.1 mm 5 mps 744 mmHg 89%
    07:00 +6°C° 0 mm 5 mps 744 mmHg 89%
    08:00 +7°C° 0 mm 5 mps 744 mmHg 89%
    09:00 +7°C° 0 mm 5 mps 745 mmHg 89%
    10:00 +7°C° 0.1 mm 4 mps 745 mmHg 88%
    11:00 +8°C° 0.1 mm 4 mps 744 mmHg 86%
    12:00 +8°C° 0.1 mm 4 mps 744 mmHg 84%
    13:00 +8°C° 0.5 mm 3 mps 744 mmHg 88%
    14:00 +8°C° 0.5 mm 2 mps 743 mmHg 91%
    15:00 +8°C° 0.5 mm 1 mps 743 mmHg 95%
    16:00 +8°C° 0.5 mm 1 mps 743 mmHg 95%
    17:00 +8°C° 0.5 mm 1 mps 743 mmHg 95%
    18:00 +8°C° 0.5 mm 1 mps 743 mmHg 95%
    19:00 +8°C° 0 mm 1 mps 743 mmHg 95%
    20:00 +8°C° 0 mm 1 mps 743 mmHg 95%
    21:00 +8°C° 0 mm 1 mps 743 mmHg 95%
    22:00 +9°C° 0.3 mm 1 mps 743 mmHg 95%
    23:00 +9°C° 0.3 mm 1 mps 742 mmHg 95%

    17 December, Tuesday

    Time Temperature Precipitation Wind Pressure Humidity
    00:00 +9°C° 0.3 mm 1 mps 742 mmHg 94%
    01:00 +8°C° 0 mm 2 mps 742 mmHg 93%
    02:00 +8°C° 0 mm 2 mps 742 mmHg 91%
    03:00 +8°C° 0 mm 3 mps 742 mmHg 90%
    04:00 +8°C° 0 mm 3 mps 742 mmHg 86%
    05:00 +8°C° 0 mm 4 mps 742 mmHg 83%
    06:00 +8°C° 0 mm 5 mps 742 mmHg 80%
    07:00 +8°C° 0 mm 5 mps 742 mmHg 79%
    08:00 +9°C° 0 mm 5 mps 742 mmHg 79%
    09:00 +9°C° 0 mm 5 mps 743 mmHg 78%
    10:00 +9°C° 0 mm 5 mps 743 mmHg 79%
    11:00 +11°C° 0 mm 4 mps 743 mmHg 80%
    12:00 +11°C° 0 mm 4 mps 743 mmHg 81%
    13:00 +11°C° 0.3 mm 4 mps 743 mmHg 84%
    14:00 +10°C° 0.3 mm 3 mps 743 mmHg 87%
    15:00 +10°C° 0.3 mm 3 mps 743 mmHg 90%
    16:00 +10°C° 0.1 mm 4 mps 743 mmHg 88%
    17:00 +10°C° 0.1 mm 4 mps 743 mmHg 85%
    18:00 +8°C° 0.1 mm 5 mps 743 mmHg 83%
    19:00 +8°C° 0.8 mm 5 mps 743 mmHg 85%
    20:00 +8°C° 0.8 mm 5 mps 743 mmHg 88%
    21:00 +8°C° 0.8 mm 5 mps 744 mmHg 90%
    22:00 +10°C° 0.9 mm 4 mps 744 mmHg 90%
    23:00 +10°C° 0.9 mm 4 mps 744 mmHg 90%

    18 December, Wednesday

    Time Temperature Precipitation Wind Pressure Humidity
    00:00 +10°C° 0.9 mm 4 mps 744 mmHg 90%
    01:00 +10°C° 0.4 mm 4 mps 744 mmHg 92%
    02:00 +9°C° 0.4 mm 3 mps 744 mmHg 93%
    03:00 +9°C° 0.4 mm 3 mps 744 mmHg 95%
    04:00 +9°C° 0.1 mm 3 mps 745 mmHg 95%
    05:00 +8°C° 0.1 mm 3 mps 746 mmHg 95%
    06:00 +6°C° 0.1 mm 4 mps 746 mmHg 95%
    07:00 +7°C° 0 mm 3 mps 747 mmHg 94%
    08:00 +7°C° 0 mm 2 mps 748 mmHg 93%
    09:00 +6°C° 0 mm 2 mps 748 mmHg 92%
    10:00 +6°C° 0 mm 2 mps 748 mmHg 90%
    11:00 +7°C° 0 mm 3 mps 749 mmHg 89%
    12:00 +7°C° 0 mm 3 mps 749 mmHg 87%
    13:00 +5°C° 0 mm 3 mps 749 mmHg 87%
    14:00 +5°C° 0 mm 3 mps 749 mmHg 87%
    15:00 +5°C° 0 mm 3 mps 749 mmHg 87%
    16:00 +5°C° 0 mm 3 mps 749 mmHg 88%
    17:00 +4°C° 0 mm 3 mps 749 mmHg 88%
    18:00 +4°C° 0 mm 3 mps 749 mmHg 89%
    19:00 +4°C° 0 mm 4 mps 748 mmHg 90%
    20:00 +4°C° 0 mm 4 mps 748 mmHg 90%
    21:00 +4°C° 0 mm 4 mps 748 mmHg 90%
    22:00 +4°C° 0 mm 4 mps 748 mmHg 91%
    23:00 +4°C° 0 mm 3 mps 747 mmHg 91%
    Show more